Effective Sunday, March 17, 2024, the National Weather Service National Data Buoy Center will discontinue its Dial-A-Buoy Interactive Voice Response system. For more information, see Service Change Notice 24-06 (PDF).

Station ICAC1 - 9410840 - Santa Monica Pier Image indicating link to RSS feed of recent meteorological observations for station ICAC1


Conditions at ICAC1 as of
(11:00 pm PST on 02/26/2024)
0700 GMT on 02/27/2024:
     

Click on the graph icon in the table below to see a time series plot of the last five days of that observation.

5-day plot - Atmospheric Pressure Atmospheric Pressure (PRES):29.99 in
5-day plot - Pressure Tendency Pressure Tendency (PTDY):+0.00 in ( Steady )
5-day plot - Air Temperature Air Temperature (ATMP): 56.7 °F
5-day plot - Water Temperature Water Temperature (WTMP): 60.1 °F
NOS Water Level Observation Network Water Level
Previous observations
TIME
(PST)
5-day plot - Wind Direction
WDIR
 
5-day plot - Wind Speed
WSPD
kts
5-day plot - Wind Gust
GST
kts
5-day plot - Wave Height
WVHT
ft
5-day plot - Dominant Wave Period
DPD
sec
5-day plot - Average Wave Period
APD
sec
5-day plot - Mean Wave Direction
MWD
 
5-day plot - Atmospheric Pressure
PRES
in
5-day plot - Pressure Tendency
PTDY
in
5-day plot - Air Temperature
ATMP
°F
5-day plot - Water Temperature
WTMP
°F
5-day plot - Dew Point
DEWP
°F
5-day plot - Salinity
SAL
psu
5-day plot - Visibility
VIS
nmi
5-day plot - Tide (above MLLW)
TIDE
ft
2024-02-26 10:54 pm-------30.00- 56.7 60.1----
2024-02-26 10:48 pm-------30.00- 56.7 60.1----
2024-02-26 10:42 pm-------29.99- 56.7 60.1----
2024-02-26 10:36 pm-------29.99- 56.7 60.1----
2024-02-26 10:30 pm-------29.99- 56.7 60.1----
2024-02-26 10:24 pm-------29.99- 56.5 60.1----
2024-02-26 10:18 pm-------29.99- 56.3 60.1----
2024-02-26 10:12 pm-------29.99- 56.1 60.1----
2024-02-26 10:06 pm-------29.99- 56.1 60.1----
2024-02-26 10:00 pm-------29.99+0.00 56.1 60.1----
2024-02-26 09:54 pm-------29.99- 56.1 60.1----
2024-02-26 09:48 pm-------29.99- 56.1 60.1----
2024-02-26 09:42 pm-------29.99- 56.1 60.1----
2024-02-26 09:36 pm-------30.00- 56.1 60.1----
2024-02-26 09:30 pm-------30.00- 56.1 60.1----
2024-02-26 09:24 pm-------30.00- 55.9 60.1----
2024-02-26 09:18 pm-------30.00- 56.1 60.1----
2024-02-26 09:12 pm-------30.00- 56.3 60.1----
2024-02-26 09:06 pm-------30.00- 56.1 60.1----
2024-02-26 09:00 pm-------30.00+0.01 56.1 60.1----
2024-02-26 08:54 pm-------30.00- 56.1 60.1----
2024-02-26 08:48 pm-------30.00- 56.3 60.1----
2024-02-26 08:42 pm-------29.99- 56.1 60.1----
2024-02-26 08:36 pm-------29.99- 56.3 60.1----
2024-02-26 08:30 pm-------30.00- 56.1 60.1----
2024-02-26 08:24 pm-------30.00- 56.1 60.1----
2024-02-26 08:18 pm-------30.00- 55.9 60.1----
2024-02-26 08:12 pm-------29.99- 56.1 60.1----
2024-02-26 08:06 pm-------29.99- 55.9 60.1----
2024-02-26 08:00 pm-------29.99+0.00 56.1 60.1----
2024-02-26 07:54 pm-------29.99- 56.1 60.1----
2024-02-26 07:48 pm-------29.98- 55.9 60.1----
2024-02-26 07:42 pm-------29.98- 55.9 60.1----
2024-02-26 07:36 pm-------29.98- 55.9 60.1----
2024-02-26 07:30 pm-------29.98- 55.9 60.1----
2024-02-26 07:24 pm-------29.99- 55.9 60.1----
2024-02-26 07:18 pm-------29.99- 56.1 60.1----
2024-02-26 07:12 pm-------29.99- 55.9 60.1----
2024-02-26 07:06 pm-------29.99- 55.8 60.1----
2024-02-26 07:00 pm-------29.99+0.00 55.8 60.1----
2024-02-26 06:54 pm-------29.99- 55.8 60.1----
2024-02-26 06:48 pm-------29.99- 55.9 60.1----
2024-02-26 06:42 pm-------29.99- 55.9 60.1----
2024-02-26 06:36 pm-------29.99- 55.9 60.1----
2024-02-26 06:30 pm-------29.99- 55.9 60.1----
2024-02-26 06:24 pm-------30.00- 56.1 60.1----
2024-02-26 06:18 pm-------30.00- 56.3 60.1----
2024-02-26 06:12 pm-------30.00- 56.1 60.1----
2024-02-26 06:06 pm-------29.99- 56.1 60.1----
2024-02-26 06:00 pm-------29.99+0.00- 60.1----
2024-02-26 05:54 pm-------29.99-- 60.1----
2024-02-26 05:48 pm-------29.98-- 60.1----
2024-02-26 05:42 pm-------29.98-- 60.1----
2024-02-26 05:36 pm-------29.98-- 60.1----
2024-02-26 05:30 pm-------29.98- 56.3 60.1----
2024-02-26 05:24 pm-------29.98- 56.1 60.1----
2024-02-26 05:18 pm-------29.98- 56.1 60.1----
2024-02-26 05:12 pm-------29.99- 56.1 60.1----
2024-02-26 05:06 pm-------29.99- 56.1 60.1----
2024-02-26 05:00 pm-------29.99+0.01 56.3-----
2024-02-26 04:54 pm-------29.99- 56.7-----
2024-02-26 04:48 pm-------29.99- 56.3 60.1----
2024-02-26 04:42 pm-------30.00- 56.7 60.1----
2024-02-26 04:36 pm-------30.00- 57.0 60.1----
2024-02-26 04:30 pm-------30.00-------
2024-02-26 04:24 pm-------29.99-------
2024-02-26 04:18 pm-------29.99- 57.7 60.3----
2024-02-26 04:12 pm-------29.99- 57.7 60.3----
2024-02-26 04:06 pm-------29.99- 57.9 60.3----
2024-02-26 04:00 pm-------29.98-0.02 57.7 60.1----
2024-02-26 03:54 pm-------29.99- 58.1 60.1----
2024-02-26 03:48 pm-------29.99- 58.3 60.1----
2024-02-26 03:42 pm-------29.99- 58.3 60.1----
2024-02-26 03:36 pm-------29.99- 58.5 60.1----
2024-02-26 03:30 pm-------29.99-------
2024-02-26 03:24 pm-------29.99-------
2024-02-26 03:00 pm-------30.00-0.05 59.0 60.1----
2024-02-26 02:54 pm-------30.00- 58.5 60.1----
2024-02-26 02:48 pm-------29.99- 58.6 60.1----
2024-02-26 02:42 pm-------29.98- 58.8 60.1----
2024-02-26 02:36 pm-------29.97- 59.0 60.1----
2024-02-26 02:30 pm-------29.98- 58.6 60.1----
2024-02-26 02:24 pm-------29.98- 58.6 60.1----
2024-02-26 02:18 pm-------29.98- 59.0 60.1----
2024-02-26 02:12 pm-------29.98- 59.0 60.1----
2024-02-26 02:06 pm-------29.98- 58.8 60.1----
2024-02-26 02:00 pm-------29.98-0.10 58.8 60.1----
2024-02-26 01:54 pm-------29.98- 59.2 60.1----
2024-02-26 01:48 pm-------29.98- 59.2 60.1----
2024-02-26 01:42 pm-------29.99- 59.2 60.1----
2024-02-26 01:36 pm-------29.99- 58.8 60.1----
2024-02-26 01:30 pm-------29.99- 59.0 60.1----
2024-02-26 01:24 pm-------29.99- 59.2 60.1----
2024-02-26 01:18 pm-------30.00- 58.8 60.1----
2024-02-26 01:12 pm-------30.01- 58.6 60.1----
2024-02-26 01:06 pm-------30.01- 58.6 60.1----
2024-02-26 01:00 pm-------30.01-0.08 58.5 60.1----
2024-02-26 12:54 pm-------30.02- 58.6 59.9----
2024-02-26 12:48 pm-------30.02-- 59.9----
2024-02-26 12:42 pm-------30.02-- 59.9----
2024-02-26 12:36 pm-------30.03-- 59.9----
2024-02-26 12:30 pm-------30.03- 58.8 59.9----
2024-02-26 12:24 pm-------30.03- 59.0 59.9----
2024-02-26 12:18 pm-------30.03- 59.0-----
2024-02-26 12:12 pm-------30.03- 58.8-----
2024-02-26 12:06 pm-------30.03- 58.5-----
2024-02-26 12:00 pm-------30.04-0.03 58.5 59.9----
2024-02-26 11:54 am-------30.05- 58.5 59.9----
2024-02-26 11:48 am-------30.05- 58.6 59.9----
2024-02-26 11:42 am-------30.05- 58.8 59.9----
2024-02-26 11:36 am-------30.06- 58.6 59.7----
2024-02-26 11:30 am-------30.06- 59.2 59.7----
2024-02-26 11:24 am-------30.06- 59.0 59.7----
2024-02-26 11:18 am-------30.08- 58.8 59.7----
2024-02-26 11:12 am-------30.08- 58.8 59.7----
2024-02-26 11:06 am-------30.08- 59.0 59.7----
2024-02-26 11:00 am-------30.08+0.04 58.8 59.7----
2024-02-26 10:54 am-------30.09- 59.0 59.7----
2024-02-26 10:48 am-------30.09- 58.8 59.7----
2024-02-26 10:42 am-------30.09- 58.8 59.7----
2024-02-26 10:36 am-------30.10- 58.6 59.7----
2024-02-26 10:30 am-------30.11- 58.3 59.7----
2024-02-26 10:24 am-------30.10- 58.3 59.7----
2024-02-26 10:18 am-------30.09- 58.3 59.7----
2024-02-26 10:12 am-------30.09- 58.5 59.5----
2024-02-26 10:06 am-------30.09- 58.8 59.5----
2024-02-26 10:00 am-------30.09+0.06 58.5 59.7----
2024-02-26 09:54 am-------30.09- 58.3 59.7----
2024-02-26 09:48 am-------30.09- 58.1 59.7----
2024-02-26 09:42 am-------30.09- 57.9 59.7----
2024-02-26 09:36 am-------30.09- 58.1 59.7----
2024-02-26 09:30 am-------30.09- 58.3 59.7----
2024-02-26 09:24 am-------30.08- 58.1 59.7----
2024-02-26 09:18 am-------30.08- 57.9 59.7----
2024-02-26 09:12 am-------30.07- 57.7 59.7----
2024-02-26 09:06 am-------30.07- 57.4 59.7----
2024-02-26 09:00 am-------30.08+0.04 57.2 59.7----
2024-02-26 08:54 am-------30.07- 57.0 59.7----
2024-02-26 08:48 am-------30.07- 56.8 59.7----
2024-02-26 08:42 am-------30.07- 56.8 59.7----
2024-02-26 08:36 am-------30.06- 56.8 59.7----
2024-02-26 08:30 am-------30.06- 57.4 59.7----
2024-02-26 08:24 am-------30.05- 57.6 59.7----
2024-02-26 08:18 am-------30.05- 57.0 59.7----
2024-02-26 08:12 am-------30.05- 56.8 59.7----
2024-02-26 08:06 am-------30.04- 56.7 59.7----
2024-02-26 08:00 am-------30.04-0.03 56.5 59.7----
2024-02-26 07:54 am-------30.03- 56.7 59.7----
2024-02-26 07:48 am-------30.04- 56.5 59.5----
2024-02-26 07:42 am-------30.04- 56.7 59.5----
2024-02-26 07:36 am-------30.04- 56.3 59.5----
2024-02-26 07:30 am-------30.04- 56.1 59.5----
2024-02-26 07:24 am-------30.05- 55.9 59.5----
2024-02-26 07:18 am-------30.04- 55.9 59.5----
2024-02-26 07:12 am-------30.04- 55.9 59.5----
2024-02-26 07:06 am-------30.03- 55.8 59.5----
2024-02-26 07:00 am-------30.03-0.02 55.8 59.5----
2024-02-26 06:54 am-------30.04- 55.8 59.5----
2024-02-26 06:48 am-------30.04- 55.6 59.7----
2024-02-26 06:42 am-------30.04- 55.6 59.5----
2024-02-26 06:36 am-------30.04- 55.4 59.7----
2024-02-26 06:30 am-------30.04- 55.2 59.7----
2024-02-26 06:24 am-------30.04- 55.0 59.7----
2024-02-26 06:18 am-------30.04- 55.0 59.7----
2024-02-26 06:12 am-------30.04- 54.9 59.7----
2024-02-26 06:06 am-------30.03- 54.9 59.7----
2024-02-26 06:00 am-------30.04-0.03 55.0 59.7----
2024-02-26 05:54 am-------30.04- 55.0 59.7----
2024-02-26 05:48 am-------30.05- 55.0 59.7----
2024-02-26 05:42 am-------30.05- 55.0 59.7----
2024-02-26 05:36 am-------30.06- 55.0 59.7----
2024-02-26 05:30 am-------30.05- 54.7 59.9----
2024-02-26 05:24 am-------30.06- 54.5 59.9----
2024-02-26 05:18 am-------30.06- 54.7 59.9----
2024-02-26 05:12 am-------30.05- 54.7 59.9----
2024-02-26 05:06 am-------30.06- 54.5 59.9----
2024-02-26 05:00 am-------30.06+0.00 54.7 59.9----
2024-02-26 04:54 am-------30.06- 54.7 59.9----
2024-02-26 04:48 am-------30.06- 54.9 59.9----
2024-02-26 04:42 am-------30.06- 54.7 59.9----
2024-02-26 04:36 am-------30.06- 54.9 59.9----
2024-02-26 04:30 am-------30.06- 54.5 59.9----
2024-02-26 04:24 am-------30.06- 54.7 59.9----
2024-02-26 04:18 am-------30.06- 54.9 59.9----
2024-02-26 04:12 am-------30.06- 54.9 59.9----
2024-02-26 04:06 am-------30.06- 54.9 59.9----
2024-02-26 04:00 am-------30.06-0.01 55.4 59.9----
2024-02-26 03:54 am-------30.06- 55.4 59.9----
2024-02-26 03:48 am-------30.05- 55.6 59.9----
2024-02-26 03:42 am-------30.05- 55.8 59.9----
2024-02-26 03:36 am-------30.05- 55.0 59.9----
2024-02-26 03:30 am-------30.05- 55.4 59.9----
2024-02-26 03:24 am-------30.06- 55.0 60.1----
2024-02-26 03:18 am-------30.06- 54.5 60.1----
2024-02-26 03:12 am-------30.06- 54.3 60.1----
2024-02-26 03:06 am-------30.06- 54.9 60.1----
2024-02-26 03:00 am-------30.06-0.03 54.7 60.1----
2024-02-26 02:54 am-------30.06- 55.0 60.1----
2024-02-26 02:48 am-------30.06- 54.9 60.1----
2024-02-26 02:42 am-------30.06- 54.7 60.1----
2024-02-26 02:36 am-------30.06- 54.7 59.9----
2024-02-26 02:30 am-------30.06- 54.9 59.9----
2024-02-26 02:24 am-------30.06- 54.9 60.1----
2024-02-26 02:18 am-------30.06- 55.0 59.9----
2024-02-26 02:12 am-------30.06- 55.2 60.1----
2024-02-26 02:06 am-------30.06- 55.2 60.1----
2024-02-26 02:00 am-------30.06-0.03 55.8 60.1----
2024-02-26 01:54 am-------30.06- 55.9 60.1----
2024-02-26 01:48 am-------30.06- 55.6 60.1----
2024-02-26 01:42 am-------30.06- 55.4 60.1----
2024-02-26 01:36 am-------30.07- 55.4 60.1----
2024-02-26 01:30 am-------30.07- 55.0 60.1----
2024-02-26 01:24 am-------30.07- 55.2 60.1----
2024-02-26 01:18 am-------30.06- 55.9 60.1----
2024-02-26 01:12 am-------30.07- 55.8 60.1----
2024-02-26 01:06 am-------30.07- 55.2 60.3----
2024-02-26 01:00 am-------30.07-0.02 55.4 60.3----
2024-02-26 12:54 am-------30.07- 55.0 60.3----
2024-02-26 12:48 am-------30.07- 55.9 60.3----
2024-02-26 12:42 am-------30.07- 55.4 60.3----
2024-02-26 12:36 am-------30.08- 55.6 60.3----
2024-02-26 12:30 am-------30.08- 55.8 60.3----
2024-02-26 12:24 am-------30.08- 55.8 60.3----
2024-02-26 12:18 am-------30.09- 55.6 60.3----
2024-02-26 12:12 am-------30.09- 56.1 60.3----
2024-02-26 12:06 am-------30.09- 56.5 60.3----
2024-02-26 12:00 am-------30.09+0.01 56.1 60.3----
2024-02-25 11:54 pm-------30.10- 55.8 60.3----
2024-02-25 11:48 pm-------30.10- 55.9 60.3----
2024-02-25 11:42 pm-------30.09- 56.1 60.3----
2024-02-25 11:36 pm-------30.09- 56.3 60.3----
2024-02-25 11:30 pm-------30.09- 56.7 60.3----
2024-02-25 11:24 pm-------30.09- 56.7 60.3----
2024-02-25 11:18 pm-------30.09- 57.0 60.3----
2024-02-25 11:12 pm-------30.09- 57.0 60.3----
2024-02-25 11:06 pm-------30.09- 56.8 60.3----
2024-02-25 11:00 pm-------30.09+0.02 56.7 60.3----
2024-02-25 10:54 pm-------30.09- 56.5 60.3----